Regional Weather Roundup
Issued by NWS

Home | Current Version | Previous Version | Text Only | Print | Product List | Glossary Off
Versions: 1 2 3 4 5 6 7 8 9 10 11 12 13 14 15 16 17 18 19 20 21 22 23 24 25 26 27 28 29 30 31 32 33 34 35 36 37 38 39 40 41 42 43 44 45 46 47 48 49 50

000
ASUS43 KLMK 051802
RWRKY
KENTUCKY REGIONAL WEATHER ROUNDUP
NATIONAL WEATHER SERVICE LOUISVILLE KY
200 PM EDT SUN JUL 05 2015

NOTE "FAIR" INDICATES FEW OR NO CLOUDS BELOW 12,000 FEET
WITH NO SIGNIFICANT WEATHER AND/OR OBSTRUCTIONS TO VISIBILITY.

KYZ001>023-026-027-061>063-070>075-051900-
WESTERN AND SOUTH CENTRAL KENTUCKY

CITY           SKY/WX    TMP DP  RH WIND       PRES   REMARKS
PADUCAH        MOSUNNY   83  66  56 S3        30.08S
HENDERSON      MOSUNNY   82  66  57 E3        30.05S
OWENSBORO      LGT RAIN  79  72  79 SW14G38   30.07S
HOPKINSVILLE   PTSUNNY   84  69  60 SW5       30.08R
BOWLING GREEN  CLOUDY    78  70  76 SW3       30.08R
GLASGOW        NOT AVBL
$$

KYZ024-025-028>034-038-045-046-053-051900-
NORTH CENTRAL KENTUCKY

CITY           SKY/WX    TMP DP  RH WIND       PRES   REMARKS
LOUISVILLE/SDF CLOUDY    79  67  66 NE5       30.07S
LOUISVILLE/LOU CLOUDY    77  66  68 N6        30.08F
FORT KNOX      CLOUDY    77  69  75 VRB5      30.07S
$$

KYZ035>037-039>044-047>052-055>060-089>105-051900-
NORTHEAST KENTUCKY

CITY           SKY/WX    TMP DP  RH WIND       PRES   REMARKS
LEXINGTON      CLOUDY    74  67  78 NE6       30.08F
COVINGTON      CLOUDY    79  59  50 NE8       30.09F
FRANKFORT      CLOUDY    76  64  66 VRB3      30.07F
$$

KYZ054-064>069-076>088-106>120-051900-
SOUTHEAST KENTUCKY

CITY           SKY/WX    TMP DP  RH WIND       PRES   REMARKS
JACKSON        CLOUDY    73  68  84 CALM      30.09F
LONDON         HVY RAIN  69  65  86 N6        30.08S FOG
SOMERSET       NOT AVBL
MIDDLESBORO    CLOUDY    74  68  82 S5        30.07S
MONTICELLO     CLOUDY    74  70  87 CALM      30.11S
$$



USA.gov is the U.S. government's official web portal to all federal, state and local government web resources and services.